Regional Weather Roundup
Issued by NWS

Home | Current Version | Previous Version | Text Only | Print | Product List | Glossary Off
Versions: 1 2 3 4 5 6 7 8 9 10 11 12 13 14 15 16 17 18 19 20 21 22 23 24 25 26 27 28 29 30 31 32 33 34 35 36 37 38 39 40 41 42 43 44 45 46 47 48 49 50

000
ASUS43 KFSD 290010
RWRSD

WEATHER ROUNDUP FOR SOUTH DAKOTA
NATIONAL WEATHER SERVICE SIOUX FALLS SD
700 PM CDT SUN AUG 28 2016

NOTE: "FAIR" INDICATES FEW OR NO CLOUDS BELOW 12,000 FEET WITH NO
SIGNIFICANT WEATHER AND/OR OBSTRUCTIONS TO VISIBILITY.


SDZ001>005-009-010-012>017-290100-
NORTHWEST AND NORTH CENTRAL SOUTH DAKOTA

CITY           SKY/WX    TMP DP  RH WIND       PRES   REMARKS
BUFFALO          N/A     90  49  24 N9        29.92R
FAITH            N/A     92  44  19 SE9       29.95R
MOBRIDGE       SUNNY     94  43  17 SE3       29.89R
$$

SDZ012>016-024>037-041>051-057-063-072>074-290100-
SOUTHWEST AND SOUTH CENTRAL SOUTH DAKOTA

CITY           SKY/WX    TMP DP  RH WIND       PRES   REMARKS
RAPID CTY ARPT SUNNY     88  52  29 NE8       29.98R
PIERRE         SUNNY     94  54  25 W3        29.88S
CUSTER         SUNNY     82  28  14 VRB6      30.16R
ELLSWORTH AFB  SUNNY     90  50  25 NE8       29.98
PHILIP         SUNNY     95  47  19 W3        29.92R
PINE RIDGE     SUNNY     86  52  30 S13       30.00R
WINNER         FAIR      92  63  38 S12       29.95S
$$

SDZ004>011-016>023-039-040-290100-
NORTHEAST SOUTH DAKOTA

CITY           SKY/WX    TMP DP  RH WIND       PRES   REMARKS
ABERDEEN       MOSUNNY   85  69  58 S12       29.90S
WATERTOWN      SUNNY     84  71  65 S14       29.99R
BROOKINGS        N/A    N/A N/A N/A MISG        N/A
SISSETON         N/A     86  73  65 S12       29.94R
$$

SDZ017-020-022-023-036>040-048>070-290100-
SOUTHEAST SOUTH DAKOTA

CITY           SKY/WX    TMP DP  RH WIND       PRES   REMARKS
SIOUX FALLS    MOSUNNY   87  70  56 S12       30.03R
HURON          SUNNY     89  67  47 S14       29.93R
CHAMBERLAIN    SUNNY     93  64  38 S13       29.93S
MITCHELL       SUNNY     89  67  47 S16       29.96R
YANKTON        CLOUDY    88  66  48 S13G18    30.00R
$$

ABBREVIATIONS USED IN REMARKS
   TC - TEMPERATURE IN CELSIUS
  WCI - WIND CHILL INDEX
   HX - HEAT INDEX
  VSB - VISIBILITY





USA.gov is the U.S. government's official web portal to all federal, state and local government web resources and services.